N4JAH Weather Reports


Display with metric or nautical units.
time (UTC)temp
F
wind
direction
speed
MPH
gust
MPH
rain 1hr
in
rain 24hr
in
rain mn
in
humidity
%
barometer
mb
20260506023113 62 84 0.0 0.0 0.00 0.00 0.00 72 1013.7
20260506021602 63 84 0.0 0.0 0.00 0.00 0.00 70 1013.6
20260506020050 64 84 0.0 0.0 0.00 0.00 0.00 68 1013.5
20260506014555 65 84 0.0 0.0 0.00 0.00 0.00 66 1013.1
20260506013100 67 84 0.0 0.0 0.00 0.00 0.00 63 1013.0
20260506011501 68 84 0.0 0.0 0.00 0.00 0.00 62 1013.0
20260506010100 69 84 0.0 0.0 0.00 0.00 0.00 58 1013.1
20260506004625 71 84 0.0 0.0 0.00 0.00 0.00 57 1013.0
20260506003113 72 84 0.0 0.0 0.00 0.00 0.00 54 1013.1
20260506001502 73 198 0.0 0.0 0.00 0.00 0.00 52 1013.2
20260506000053 74 198 0.0 0.0 0.00 0.00 0.00 50 1012.9
20260505234637 75 198 0.0 0.0 0.00 0.00 0.00 47 1012.8
20260505233115 76 198 0.0 1.0 0.00 0.00 0.00 46 1012.8
20260505231510 78 198 0.0 3.0 0.00 0.00 0.00 44 1012.8
20260505230057 78 208 0.0 10.0 0.00 0.00 0.00 44 1012.7
20260505224559 79 216 0.0 4.0 0.00 0.00 0.00 45 1012.5
20260505223100 79 186 0.0 7.0 0.00 0.00 0.00 44 1012.7
20260505221604 80 215 1.0 4.0 0.00 0.00 0.00 43 1012.8
20260505220100 80 178 0.0 8.0 0.00 0.00 0.00 44 1012.7
20260505214602 80 228 1.0 6.0 0.00 0.00 0.00 44 1012.8
20260505213103 80 159 1.0 4.0 0.00 0.00 0.00 43 1012.7
20260505211604 80 37 0.0 5.0 0.00 0.00 0.00 45 1013.0
20260505210050 80 219 0.0 4.0 0.00 0.00 0.00 46 1012.9
20260505204600 79 259 0.0 4.0 0.00 0.00 0.00 49 1013.3
20260505203058 78 212 0.0 5.0 0.00 0.00 0.00 46 1013.3
20260505201605 78 205 0.0 5.0 0.00 0.00 0.00 47 1013.4
20260505200045 79 218 0.0 12.0 0.00 0.00 0.00 43 1013.6
20260505194550 80 203 1.0 11.0 0.00 0.00 0.00 41 1013.9
20260505193058 80 231 0.0 9.0 0.00 0.00 0.00 43 1014.0
20260505191602 81 198 0.0 6.0 0.00 0.00 0.00 43 1014.3
20260505190046 80 194 1.0 8.0 0.00 0.00 0.00 42 1014.4
20260505184547 80 105 0.0 6.0 0.00 0.00 0.00 43 1014.6
20260505183050 78 355 2.0 9.0 0.00 0.00 0.00 43 1015.0
20260505181558 79 194 1.0 8.0 0.00 0.00 0.00 43 1015.0
20260505180051 78 228 1.0 7.0 0.00 0.00 0.00 45 1015.1
20260505174606 77 225 2.0 12.0 0.00 0.00 0.00 47 1015.4
20260505173048 78 233 1.0 10.0 0.00 0.00 0.00 45 1015.5
20260505171552 78 229 1.0 5.0 0.00 0.00 0.00 47 1015.5
20260505170051 77 345 1.0 7.0 0.00 0.00 0.00 47 1015.8
20260505164543 76 225 0.0 7.0 0.00 0.00 0.00 50 1016.1
20260505163045 76 232 1.0 7.0 0.00 0.00 0.00 49 1016.2
20260505161556 76 171 1.0 7.0 0.00 0.00 0.00 52 1016.3
20260505153053 74 5 0.0 3.0 0.00 0.00 0.00 58 1016.7
20260505151549 73 266 0.0 3.0 0.00 0.00 0.00 61 1016.6
20260505124530 57 213 0.0 3.0 0.00 0.00 0.00 89 1016.0
20260505123052 54 225 0.0 0.0 0.00 0.00 0.00 94 1016.0
20260505121538 50 225 0.0 0.0 0.00 0.00 0.00 95 1016.1
20260505120029 48 225 0.0 0.0 0.00 0.00 0.00 94 1015.8
20260505114531 47 225 0.0 0.0 0.00 0.00 0.00 93 1015.7
20260505113038 46 225 0.0 0.0 0.00 0.00 0.00 92 1015.7
20260505111554 45 225 0.0 0.0 0.00 0.00 0.00 92 1015.4
20260505101544 46 225 0.0 0.0 0.00 0.00 0.00 91 1015.3
20260505100023 47 225 0.0 0.0 0.00 0.00 0.00 90 1015.0
20260505094526 47 225 0.0 0.0 0.00 0.00 0.00 90 1015.0
20260505093031 47 225 0.0 0.0 0.00 0.00 0.00 89 1015.2
20260505091537 48 225 0.0 0.0 0.00 0.00 0.00 89 1015.4
20260505090030 49 225 0.0 0.0 0.00 0.00 0.00 89 1015.2
20260505084530 49 225 0.0 2.0 0.00 0.00 0.00 90 1015.2
20260505083041 48 225 0.0 0.0 0.00 0.00 0.00 90 1015.2
20260505081546 47 225 0.0 0.0 0.00 0.00 0.00 90 1015.3
20260505080034 47 225 0.0 0.0 0.00 0.00 0.00 89 1015.2
20260505074529 48 225 0.0 0.0 0.00 0.00 0.00 89 1015.1
20260505073033 48 225 0.0 0.0 0.00 0.00 0.00 89 1015.0
20260505071540 49 225 0.0 0.0 0.00 0.00 0.00 89 1015.2
20260505070032 48 225 0.0 1.0 0.00 0.00 0.00 89 1015.1
20260505064550 48 225 0.0 0.0 0.00 0.00 0.00 89 1014.9
20260505063035 48 225 0.0 0.0 0.00 0.00 0.00 88 1015.0
20260505061541 49 225 0.0 0.0 0.00 0.00 0.00 87 1015.1
20260505060018 49 225 0.0 0.0 0.00 0.00 0.00 87 1014.9
20260505054518 49 225 0.0 0.0 0.00 0.00 0.00 86 1015.0
20260505053023 50 225 0.0 0.0 0.00 0.00 0.00 86 1015.2
20260505051529 50 225 0.0 0.0 0.00 0.00 0.00 85 1015.2
20260505041532 52 225 0.0 0.0 0.00 0.00 0.00 82 1015.3
20260505040016 53 225 0.0 0.0 0.00 0.00 0.00 81 1015.2
20260505034520 53 225 0.0 0.0 0.00 0.00 0.00 80 1015.3
20260505033028 54 225 0.0 0.0 0.00 0.00 0.00 79 1015.4
20260505031527 55 225 0.0 0.0 0.00 0.00 0.00 78 1015.5
20260505030014 55 225 0.0 0.0 0.00 0.00 0.00 76 1015.4
20260505024534 56 225 0.0 0.0 0.00 0.00 0.00 75 1015.3